Weather Service Report


197 
ASUS46 KLOX 202313
RWRCA 

SOUTHERN CALIFORNIA WEATHER ROUNDUP
NATIONAL WEATHER SERVICE OXNARD CALIFORNIA
400 PM PDT FRI JUL 20 2018

NOTE: "FAIR" INDICATES FEW OR NO CLOUDS BELOW 12,000 FEET WITH NO 
SIGNIFICANT WEATHER AND/OR OBSTRUCTIONS TO VISIBILITY.

  -  STATIONS PRECEEDED BY AN ASTERISK (*) ARE NOT NWS OR FAA 
     STATIONS AND ARE NOT SUBJECT TO NWS AND FAA QUALITY CONTROL.

CAZ041-042-087-210000-
LA AND ORANGE COUNTY COASTAL AREAS

  
CITY           SKY/WX    TMP DP  RH WIND       PRES   REMARKS
L.A. DOWNTOWN  SUNNY     81  57  43 VRB3      29.92F                  
L.A. AIRPORT   MOSUNNY   74  63  68 W13       29.94F                  
LONG BEACH     SUNNY     80  57  45 S13       29.92F                  

CITY           SKY/WX    TMP DP  RH WIND       PRES   REMARKS
AVALON           N/A     72 N/A N/A MISG        N/A                   
FULLERTON      MOSUNNY   83  58  42 S8        29.91F                  
*GETTY CENTER    N/A    N/A N/A N/A SW12        N/A                   
HAWTHORNE      SUNNY     77  62  59 W12       29.94F                  
*LEO CARRILLO    N/A     71  62  73 SW7         N/A                   
*REDONDO BEACH   N/A     75  63  66 CALM      29.93S                  
SANTA ANA      MOSUNNY   80  63  55 S13       29.93F                  
STA MONICA APT SUNNY     73  62  68 SW9       29.94F                  
TORRANCE       MOSUNNY   75  63  64 W7        29.92F                  
*UCLA            N/A    N/A N/A N/A S8        29.91F                  

$$

CAZ547-548-048-210000-
LA COUNTY VALLEYS AND INLAND EMPIRE

  
CITY           SKY/WX    TMP DP  RH WIND       PRES   REMARKS
BURBANK        SUNNY     85  57  38 SE14      29.92F                  
VAN NUYS       SUNNY     89  58  34 SE12      29.90F                  

CITY           SKY/WX    TMP DP  RH WIND       PRES   REMARKS
CORONA AIRPORT CLEAR     88  62  41 W15G23    29.90F                  
*CHATSWORTH      N/A     92  62  36 W5        29.85F HX  92           
CHINO          MOSUNNY   90  59  35 SW18      29.92F                  
*CLAREMONT       N/A     86  64  46 SW12        N/A                   
MARCH AFB      SUNNY     88  60  38 NW17      29.93F                  
*NORTHRIDGE      N/A     88  52  29 E6          N/A                   
ONTARIO        MOSUNNY   88  63  43 W16G22    29.91F                  
*PASADENA        N/A    N/A N/A N/A E7          N/A                   
POMONA         SUNNY     84  61  45 W15G22    29.96F                  
RIVERSIDE      SUNNY     88  59  37 W20G25    29.91F                  
SAN BERNARDINO MOSUNNY   93  57  29 W15       29.92F HAZE    HX  92   
*SAN RAFAEL HI   N/A     85  55  35 SW8         N/A                   
*SAUGUS          N/A     88  60  38 S14         N/A                   
*WHITEMAN AP   SUNNY     84  55  37 SE12G17   29.96F                  
*WHITTIER HILL   N/A     84  59  42 S12         N/A                   
*WOODLAND HILL   N/A     91  59  33 S5          N/A  HX  90           

$$

CAZ054-055-210000-
LA AND SAN BERNARDINO COUNTY MOUNTAINS

  
CITY           SKY/WX    TMP DP  RH WIND       PRES   REMARKS
*ACTON           N/A     90  60  35 W17         N/A                   
*BIG BEAR AIRP PTCLDY    79  46  31 SW5       30.24F                  
*BIG PINES       N/A     78  56  46 SW3         N/A                   
*CHILAO          N/A     80  51  36 S18         N/A                   
SANDBERG       SUNNY     86  58  38 S21G28    30.12F                  
*WARM SPRINGS    N/A     87  59  38 S2          N/A                   

$$

CAZ028-029-059-060-099-210000-
ANTELOPE VALLEY AND SURROUNDING AREAS

  
CITY           SKY/WX    TMP DP  RH WIND       PRES   REMARKS
LANCASTER      SUNNY     95  59  30 SW21G29   29.93S HX  94           
PALMDALE       SUNNY     95  59  30 W24       29.93F HX  94           
*POPPY PARK      N/A     92  59  32 SW22G33     N/A  HX  91           

CITY           SKY/WX    TMP DP  RH WIND       PRES   REMARKS
29 PALMS       PTSUNNY  102  57  22 S20       29.94F HX 101           
BARSTOW/DAGGET MOSUNNY  106  57  20 SE16G30   29.83F HX 105           
BISHOP         CLOUDY    90  47  22 SE6       30.00F                  
CHINA LAKE     MOSUNNY  106  49  14 S8G17     29.86F HX 103           
EDWARDS AFB    SUNNY    100  57  23 SW25G31   29.86F HX  99           
MOJAVE         SUNNY     99  55  23 SW16G24   29.93S HX  97           
NEEDLES        SUNNY    112  57  16 S12G17    29.76F HX 112           
VICTORVILLE    SUNNY    N/A N/A N/A S17G29    29.94F                  

$$

CAZ039-040-210000-
VENTURA AND SANTA BARBARA COUNTY COAST

  
CITY           SKY/WX    TMP DP  RH WIND       PRES   REMARKS
CAMARILLO      SUNNY     78  61  55 SW12      29.92F                  
NWS OXNARD       N/A     78  63  58 S3        29.92F                  
OXNARD AIRPORT SUNNY     73  63  70 SW10      29.93F                  
*POINT MUGU    MOSUNNY   73  63  70 S13       29.94F                  
SBA APT/GOLETA SUNNY     74  64  71 W9        29.93F                  
*SANTA BARBARA   N/A     82  64  52 NE3       29.99F                  
*VENTURA         N/A     73  66  78 S7G13       N/A                   

$$

CAZ044-045-210000-
VENTURA COUNTY VALLEYS

  
CITY           SKY/WX    TMP DP  RH WIND       PRES   REMARKS
*SIMI VALLEY     N/A     86  60  40 W5        29.84F                  
*WESTLAKE VILL   N/A     86  60  40 CALM      29.86F                  
*OJAI            N/A     91  62  38 W3        29.83S HX  91           
*FILLMORE        N/A     88  62  41 SW7       29.93S                  

$$

CAZ053-210000-
VENTURA COUNTY MOUNTAINS

  
CITY           SKY/WX    TMP DP  RH WIND       PRES   REMARKS
*LOCKWOOD VLY    N/A     82  52  34 MISG        N/A                   
*FRAZIER MTN     N/A     69  46  43 SE3       29.88F                  
*ROSE VALLEY     N/A     81  59  47 SW13G20     N/A                   

$$

CAZ034-035-036-210000-
CENTRAL COAST AND SANTA YNEZ VALLEY

  
CITY           SKY/WX    TMP DP  RH WIND       PRES   REMARKS
SAN LUIS OBISP SUNNY     81  55  40 W10       29.92S                  
SANTA MARIA    SUNNY     76  62  62 NW8       29.94S                  

CITY           SKY/WX    TMP DP  RH WIND       PRES   REMARKS
*CAL POLY SLO    N/A     82  64  54 SW6         N/A                   
*LOMPOC        SUNNY     71  62  73 W14       29.93F                  
*PISMO BEACH     N/A     66  32  28 W3        29.94F                  
*SANTA YNEZ    FAIR      90  59  35 SW15      29.90F                  

$$

CAZ037-038-051-210000-
SAN LUIS OBISPO COUNTY INTERIOR AND CUYAMA VALLEY

  
CITY           SKY/WX    TMP DP  RH WIND       PRES   REMARKS
PASO ROBLES    SUNNY     89  51  27 SW18      29.89F                  

$$

CAZ032-033-061-210000-
SOUTHERN DESERTS

  
CITY           SKY/WX    TMP DP  RH WIND       PRES   REMARKS
BLYTHE         MOSUNNY  108  64  24 S17G23    29.75F HX 112           
IMPERIAL       MOSUNNY  106  63  24 E6        29.71F HX 109           
PALM SPRINGS   SUNNY    108  58  19 SE10G18   29.77F HX 108           
THERMAL        SUNNY    110  56  17 SE12G17   29.71F HX 109           

$$

ELSEWHERE ACROSS THE WESTERN UNITED STATES AND MEXICO

  
CITY           SKY/WX    TMP DP  RH WIND       PRES   REMARKS
DEATH VALLEY,    N/A    115  59  16 S3          N/A  HX 116           
DENVER, CO     PTSUNNY   94  43  17 VRB5      30.13R HX  90           
GRAND CANYON,  PTSUNNY   77  52  41 SW6       30.28R THUNDER          
HONOLULU, HI   MOSUNNY   88  66  48 NE16      29.97F HX  90           
KAHULUI, MAUI  MOSUNNY   86  70  58 NE22G32   29.95F HX  90           
LAKE TAHOE, CA CLOUDY    77  48  35 S14G25    30.24R                  
LAS VEGAS, NV  PTSUNNY   99  60  27 SE5       29.87F THUNDER HX  99   
MAMMOTH LAKES, LGT RAIN  65  54  66 NE8       30.32R                  
MEXICO CITY, M PTSUNNY   70  50  49 N13G24    30.29R                  
PHOENIX, AZ    PTSUNNY  106  59  21 W9        29.77F HX 106           
PORTLAND, OR   SUNNY     78  45  30 NW8G17    30.10F                  
RENO, NV       PTSUNNY  100  38  11 W16G24    30.02F HX  95           
SALT LAKE CITY CLOUDY    89  47  23 CALM      30.01F                  
SAN DIEGO, CA  MOSUNNY   77  64  64 W8        29.96F                  
SAN FRANCISCO, MOSUNNY   80  58  46 S9        29.89S                  
SAN JOSE, CA   MOSUNNY   85  62  46 NW15      29.87S                  
SEATTLE, WA    MOSUNNY   73  46  38 W8        30.16F                  
TIJUANA, MEX   SUNNY     75  63  64 NW8       29.98F                  

$$
  
STATION/POSITION TIME  TEMP    WIND        PRES    VSBY  WAVE
                       AIR SEA DIR/SP/G                  HT/PER
                 (UTC) (F)     (DEG/KT/KT) (MB)    (MI)  (FT/S)
POINT ARGUELLO B NOT AVBL
WEST SANTA BARBA 2300      65  230/  8/ 10 1013.8
POINT CONCEPTION NOT AVBL
EAST SANTA BARBA 2300   68 69  240/  8/ 10 1014.1
SANTA MONICA BAY 2300   65 73  240/  8/ 10 1013.8

Return to Home page


Western Regional Climate Center, wrcc@dri.edu